GW0787 Weather Reports


Display with metric or nautical units.
time (UTC)temp
F
wind
direction
speed
MPH
gust
MPH
rain 1hr
in
rain 24hr
in
rain mn
in
humidity
%
barometer
mb
20260507073036 53 233 2.0 8.0 0.00 0.00 0.00 66 1016.3
20260507071533 51 16 1.0 3.0 0.00 0.00 0.00 68 1016.5
20260507070032 51 131 4.0 8.0 0.00 0.00 0.00 68 1016.3
20260507064531 53 197 0.0 2.0 0.00 0.00 0.00 67 1016.4
20260507063032 54 159 1.0 4.0 0.00 0.00 0.00 63 1016.5
20260507061531 55 91 3.0 7.0 0.00 0.00 0.00 59 1016.6
20260507060030 56 127 1.0 8.0 0.00 0.00 0.00 58 1016.5
20260507054530 56 193 6.0 15.0 0.00 0.00 0.00 58 1016.6
20260507053029 55 112 1.0 5.0 0.00 0.00 0.00 60 1016.5
20260507051528 55 312 6.0 11.0 0.00 0.00 0.00 59 1016.7
20260507050031 56 211 4.0 12.0 0.00 0.00 0.00 59 1016.5
20260507044526 56 208 5.0 15.0 0.00 0.00 0.00 59 1016.3
20260507043028 57 206 4.0 9.0 0.00 0.00 0.00 58 1016.4
20260507041524 57 216 4.0 15.0 0.00 0.00 0.00 57 1016.3
20260507040022 57 220 6.0 12.0 0.00 0.00 0.00 57 1016.1
20260507034526 58 222 6.0 15.0 0.00 0.00 0.00 56 1015.8
20260507033019 59 238 2.0 10.0 0.00 0.00 0.00 55 1015.6
20260507031519 59 155 5.0 11.0 0.00 0.00 0.00 54 1015.5
20260507030016 60 241 3.0 14.0 0.00 0.00 0.00 53 1015.1
20260507024519 61 197 4.0 12.0 0.00 0.00 0.00 51 1015.0
20260507023013 63 213 8.0 18.0 0.00 0.00 0.00 48 1014.8
20260507021513 65 253 3.0 7.0 0.00 0.00 0.00 45 1014.7
20260507020018 67 196 0.0 4.0 0.00 0.00 0.00 45 1014.5
20260507014512 66 106 1.0 8.0 0.00 0.00 0.00 45 1014.5
20260507013013 67 39 3.0 9.0 0.00 0.00 0.00 44 1014.4
20260507011512 69 116 4.0 12.0 0.00 0.00 0.00 40 1014.5
20260507010010 70 208 3.0 7.0 0.00 0.00 0.00 39 1014.4
20260507004510 69 203 1.0 10.0 0.00 0.00 0.00 43 1014.2
20260507003006 71 180 5.0 10.0 0.00 0.00 0.00 41 1014.1
20260507001514 71 79 5.0 21.0 0.00 0.00 0.00 41 1013.9
20260507000003 72 141 5.0 11.0 0.00 0.00 0.00 40 1013.6
20260506234503 72 147 5.0 10.0 0.00 0.00 0.00 39 1013.7
20260506233003 72 164 4.0 11.0 0.00 0.00 0.00 41 1013.6
20260506231502 72 146 5.0 15.0 0.00 0.00 0.00 41 1013.7
20260506230001 72 174 6.0 15.0 0.00 0.00 0.00 42 1013.7
20260506224501 72 125 5.0 16.0 0.00 0.00 0.00 43 1013.7
20260506223105 73 161 5.0 13.0 0.00 0.00 0.00 42 1013.6
20260506223002 73 139 5.0 13.0 0.00 0.00 0.00 42 1013.6
20260506221617 74 140 6.0 15.0 0.00 0.00 0.00 40 1013.6
20260506220101 73 139 3.0 10.0 0.00 0.00 0.00 36 1013.7
20260506214600 73 53 3.0 9.0 0.00 0.00 0.00 37 1013.7
20260506213103 73 137 4.0 9.0 0.00 0.00 0.00 34 1013.7
20260506211558 74 153 4.0 12.0 0.00 0.00 0.00 33 1013.8
20260506204558 74 64 1.0 8.0 0.00 0.00 0.00 32 1013.5
20260506203120 74 29 3.0 12.0 0.00 0.00 0.00 33 1013.6
20260506201555 74 207 4.0 23.0 0.00 0.00 0.00 34 1013.6
20260506200058 73 220 1.0 17.0 0.00 0.00 0.00 33 1013.5
20260506194555 74 241 7.0 20.0 0.00 0.00 0.00 31 1013.5
20260506193103 73 213 3.0 9.0 0.00 0.00 0.00 32 1013.4
20260506191553 73 298 6.0 17.0 0.00 0.00 0.00 29 1013.6
20260506190053 73 247 5.0 13.0 0.00 0.00 0.00 31 1013.6
20260506184553 73 4 4.0 17.0 0.00 0.00 0.00 29 1013.5
20260506183053 73 231 7.0 15.0 0.00 0.00 0.00 32 1013.5
20260506181554 73 149 3.0 11.0 0.00 0.00 0.00 36 1013.5
20260506180050 73 56 4.0 8.0 0.00 0.00 0.00 39 1013.4
20260506174544 72 4 4.0 8.0 0.00 0.00 0.00 39 1013.2
20260506173045 70 192 4.0 10.0 0.00 0.00 0.00 45 1013.4
20260506171538 69 73 5.0 11.0 0.00 0.00 0.00 47 1013.2
20260506170043 69 123 8.0 15.0 0.00 0.00 0.00 50 1013.4
20260506164545 67 46 6.0 14.0 0.00 0.00 0.00 50 1013.3
20260506163029 66 47 6.0 13.0 0.00 0.00 0.00 54 1013.6
20260506161525 64 86 4.0 13.0 0.00 0.00 0.00 57 1013.8
20260506160021 64 81 8.0 15.0 0.00 0.00 0.00 57 1013.8
20260506154518 62 77 6.0 14.0 0.00 0.00 0.00 61 1014.0
20260506153013 58 90 2.0 5.0 0.00 0.00 0.00 72 1014.1
20260506151508 55 127 1.0 8.0 0.00 0.00 0.00 82 1014.2
20260506150006 51 183 0.0 3.0 0.00 0.00 0.00 90 1014.4
20260506144511 48 183 0.0 3.0 0.00 0.00 0.00 91 1014.6
20260506143004 46 120 1.0 4.0 0.00 0.00 0.00 90 1014.7
20260506141509 44 160 1.0 3.0 0.00 0.00 0.00 91 1014.4
20260506140002 44 174 1.0 3.0 0.00 0.00 0.00 91 1014.3
20260506134601 44 226 1.0 5.0 0.00 0.00 0.00 91 1014.5
20260506133115 44 159 0.0 2.0 0.00 0.00 0.00 91 1014.5
20260506131615 44 156 0.0 2.0 0.00 0.00 0.00 91 1014.5
20260506130057 44 156 0.0 2.0 0.00 0.00 0.00 90 1014.5
20260506124557 44 156 0.0 2.0 0.00 0.00 0.00 90 1014.3
20260506123054 44 156 0.0 0.0 0.00 0.00 0.00 90 1014.3
20260506121555 45 157 0.0 1.0 0.00 0.00 0.00 90 1014.2
20260506120059 45 157 0.0 0.0 0.00 0.00 0.00 90 1014.1
20260506114547 45 156 0.0 0.0 0.00 0.00 0.00 89 1014.2
20260506113045 45 156 0.0 2.0 0.00 0.00 0.00 90 1014.0
20260506111546 46 156 0.0 0.0 0.00 0.00 0.00 89 1014.0
20260506110052 46 156 0.0 0.0 0.00 0.00 0.00 89 1014.0
20260506104550 46 155 0.0 2.0 0.00 0.00 0.00 89 1013.7
20260506103044 46 155 0.0 3.0 0.00 0.00 0.00 88 1013.6
20260506101536 47 153 0.0 2.0 0.00 0.00 0.00 88 1013.6
20260506100033 47 150 0.0 2.0 0.00 0.00 0.00 88 1013.6
20260506094531 47 149 0.0 4.0 0.00 0.00 0.00 87 1013.4
20260506093028 48 174 0.0 1.0 0.00 0.00 0.00 86 1013.5
20260506091525 48 172 0.0 1.0 0.00 0.00 0.00 86 1013.4
20260506090023 49 173 0.0 0.0 0.00 0.00 0.00 85 1013.4
20260506084543 49 170 0.0 1.0 0.00 0.00 0.00 84 1013.4
20260506083019 49 171 0.0 1.0 0.00 0.00 0.00 84 1013.3
20260506081518 50 171 0.0 2.0 0.00 0.00 0.00 84 1013.3